Weather History for Baker, MT

Change the Weather History Date:

Wednesday, June 26, 2013

  Actual Average Record
Temperature  
Mean Temperature 67 °F -  
Max Temperature 80 °F 85 °F 108 °F (2012)
Min Temperature 55 °F 45 °F 41 °F (2003)
Cooling Degree Days 2    
Growing Degree Days 17 (Base 50)    
Moisture  
Dew Point 52 °F    
Average Humidity 60    
Maximum Humidity 87    
Minimum Humidity 36    
Precipitation  
Precipitation 0.00 in - - ()
Sea Level Pressure  
Sea Level Pressure 29.88 in    
Wind  
Wind Speed 7 mph (West)    
Max Wind Speed 16 mph    
Max Gust Speed 23 mph    
Visibility 10 miles    
Events      
Averages and records for this station are not official NWS values.
T = Trace of Precipitation, MM = Missing Value Source: NWS Daily Summary

Daily Weather History Graph

Daily Weather History Graph

Search for Another Location

Airport:

Trip Planner

Search our weather history database for the weather conditions in past years. The results will help you decide how hot, cold, wet, or windy it might be!

Date:

Astronomy

Jun. 26, 2013 Rise Set
Actual Time 5:06 AM MDT 8:53 PM MDT
Civil Twilight 4:27 AM MDT 9:32 PM MDT
Nautical Twilight 3:34 AM MDT 10:24 PM MDT
Astronomical Twilight 2:19 AM MDT 11:39 PM MDT
Moon 11:01 PM MDT 9:15 AM MDT
Length of Visible Light 17h 04m
Length of Day
15h 47m
Waning Gibbous, 85% of the Moon is Illuminated
Jun 26
Waning Gibbous
Jun 29
Last Quarter
Jul 8
New
Jul 15
First Quarter
Jul 22
Full

Hourly Weather History & Observations

Time (MDT) Temp. Dew Point Humidity Pressure Visibility Wind Dir Wind Speed Gust Speed Precip Events Conditions
12:51 AM 55.9 °F 51.1 °F 84% 29.79 in 10.0 mi SSE 4.6 mph - N/A   Clear
1:51 AM 57.0 °F 52.0 °F 83% 29.78 in 10.0 mi SSE 3.5 mph - N/A   Clear
2:51 AM 59.0 °F 52.0 °F 78% 29.79 in 10.0 mi ESE 3.5 mph - N/A   Clear
3:51 AM 55.0 °F 51.1 °F 86% 29.80 in 10.0 mi SE 3.5 mph - N/A   Clear
4:51 AM 55.9 °F 52.0 °F 87% 29.80 in 10.0 mi ESE 4.6 mph - N/A   Overcast
5:51 AM 59.0 °F 54.0 °F 83% 29.80 in 10.0 mi SSE 9.2 mph - N/A   Overcast
6:51 AM 62.1 °F 55.0 °F 78% 29.81 in 10.0 mi Calm Calm - N/A   Mostly Cloudy
7:51 AM 66.9 °F 57.0 °F 70% 29.81 in 10.0 mi SSW 3.5 mph - N/A   Clear
8:51 AM 69.1 °F 55.0 °F 61% 29.83 in 10.0 mi West 11.5 mph - N/A   Clear
9:51 AM 69.1 °F 55.9 °F 63% 29.86 in 10.0 mi West 9.2 mph - N/A   Clear
10:51 AM - - N/A% 29.93 in - North - - N/A   Clear
11:51 AM - - N/A% 29.94 in - North - - N/A   Clear
12:51 PM 77.0 °F 50.0 °F 39% 29.89 in 10.0 mi WNW 15.0 mph 23.0 mph N/A   Clear
1:51 PM 79.0 °F 52.0 °F 39% 29.89 in 10.0 mi WNW 11.5 mph 21.9 mph N/A   Clear
2:51 PM 77.0 °F 48.9 °F 37% 29.90 in 10.0 mi WNW 16.1 mph 21.9 mph N/A   Clear
3:51 PM 79.0 °F 50.0 °F 36% 29.90 in 10.0 mi WNW 16.1 mph - N/A   Clear
4:51 PM 79.0 °F 51.1 °F 38% 29.90 in 10.0 mi WNW 11.5 mph 18.4 mph N/A   Clear
5:51 PM 79.0 °F 51.1 °F 38% 29.90 in 10.0 mi WNW 12.7 mph - N/A   Clear
6:51 PM 78.1 °F 51.1 °F 39% 29.91 in 10.0 mi NW 9.2 mph - N/A   Clear
7:51 PM 73.9 °F 51.1 °F 45% 29.91 in 10.0 mi NW 9.2 mph - N/A   Clear
8:51 PM 69.1 °F 50.0 °F 51% 29.94 in 10.0 mi WNW 6.9 mph - N/A   Clear
9:51 PM 66.0 °F 51.1 °F 59% 29.98 in 10.0 mi NW 6.9 mph - N/A   Clear
10:51 PM 66.0 °F 51.1 °F 59% 30.05 in 10.0 mi West 8.1 mph - N/A   Partly Cloudy
11:51 PM 66.0 °F 50.0 °F 56% 30.05 in 10.0 mi West 5.8 mph - N/A   Scattered Clouds